Regional Weather Roundup
Issued by NWS

Home | Current Version | Previous Version | Text Only | Print | Product List | Glossary On
Versions: 1 2 3 4 5 6 7 8 9 10 11 12 13 14 15 16 17 18 19 20 21 22 23 24 25 26 27 28 29 30 31 32 33 34 35 36 37 38 39 40 41 42 43 44 45 46 47 48 49 50
000
ASUS43 KMKX 200511
RWRWI

WISCONSIN REGIONAL WEATHER ROUNDUP
NATIONAL WEATHER SERVICE MILWAUKEE/SULLIVAN WI
1100 PM CST FRI DEC 19 2014

NOTE: "FAIR" INDICATES FEW OR NO CLOUDS BELOW 12,000 FEET WITH NO
SIGNIFICANT WEATHER AND/OR OBSTRUCTIONS TO VISIBILITY.

WIZ001-002-006>008-014>016-023>028-200600-
NORTHWEST WISCONSIN

CITY           SKY/WX    TMP DP  RH WIND       PRES   REMARKS
SUPERIOR ARPT  CLOUDY    27  24  89 CALM      30.19S
ASHLAND        CLOUDY    25  22  88 CALM      30.21R
HAYWARD        CLOUDY    25  21  85 S6        30.18S WCI  18
SIREN          CLOUDY    27  23  83 S7        30.18S WCI  20
CUMBERLAND     CLOUDY    27  21  80 SE6       30.17F WCI  20
RICE LAKE      CLOUDY    27  22  84 SE7       30.21S WCI  19
CHETEK         CLOUDY    26  22  85 SE5       30.20S WCI  20
LADYSMITH      CLOUDY    26  23  89 SE3       30.21S
EAU CLAIRE     CLOUDY    27  21  78 SE3       30.21S
MENOMONIE      CLOUDY    28  23  81 SE6       30.21S WCI  22
NEW RICHMOND   CLOUDY    28  25  89 S9        30.18S WCI  19
OSCEOLA        CLOUDY    28  25  86 SE9       30.21R WCI  20
$$

WIZ003>005-009-010-017-018-200600-
NORTH CENTRAL WISCONSIN

CITY           SKY/WX    TMP DP  RH WIND       PRES   REMARKS
MANITOWISH WTR CLOUDY    21  21  99 SW3       30.18S
ARBOR VITAE    CLOUDY    23  20  89 CALM      30.18S
WOODRUFF       CLOUDY    23  20  89 CALM      30.18S
RHINELANDER    CLOUDY    20  18  92 SW5       30.19S WCI  13
EAGLE RIVER    CLOUDY    13  11  92 CALM      30.18S
LAND O LAKES   MOCLDY    10   7  91 CALM      30.19S
PHILLIPS       CLOUDY    22  20  93 S3        30.18S
TOMAHAWK       CLOUDY    22  20  91 CALM      30.20S
MEDFORD        CLOUDY    23  20  91 SE3       30.19S
MERRILL        CLOUDY    23  21  91 CALM      30.21S
$$

WIZ029-030-035-036-043>047-200600-
CENTRAL WISCONSIN

CITY           SKY/WX    TMP DP  RH WIND       PRES   REMARKS
WAUSAU         CLOUDY    23  20  88 CALM      30.21R
MOSINEE        CLOUDY    23  23 100 CALM      30.23S
MARSHFIELD     CLOUDY    24  21  88 S8        30.22R WCI  15
STEVENS POINT  CLOUDY    21  19  91 CALM      30.24R
WAUPACA        CLOUDY    27  21  79 CALM      30.26R
WAUTOMA        CLOUDY    26  22  85 CALM      30.26R
WISC RAPIDS    CLOUDY    22  18  85 S3        30.25R
CAMP DOUGLAS   CLOUDY    25  25 100 SE3       30.24S
$$

WIZ011>013-019>022-031-037>040-048>050-200600-
NORTHEAST WISCONSIN

CITY           SKY/WX    TMP DP  RH WIND       PRES   REMARKS
ANTIGO         CLOUDY    14  13  95 CALM      30.20S
SHAWANO        CLEAR     20  18  91 CALM      30.26S
OCONTO         CLEAR     14  13  97 CALM      30.27R
STURGEON BAY   CLEAR     19  16  86 CALM      30.27S
GREEN BAY      CLEAR     20  18  92 CALM      30.26S
MANITOWOC      CLOUDY    28  25  88 W3        30.27R
APPLETON       PTCLDY    23  18  80 CALM      30.25S
CLINTONVILLE   CLEAR     19  18  93 CALM      30.25S
OSHKOSH        PTCLDY    21  17  84 CALM      30.26R
$$

WIZ032>034-041-042-053>061-200600-
SOUTHWEST WISCONSIN

CITY           SKY/WX    TMP DP  RH WIND       PRES   REMARKS
LA CROSSE      CLOUDY    30  21  69 S7        30.24S WCI  23
SPARTA         CLOUDY    28  21  73 CALM      30.25S
VIROQUA        CLOUDY    27  23  84 S3        30.21S
BOSCOBEL       CLOUDY    29  22  75 CALM      30.26S
PRAIRIE DU CHI CLOUDY    28  22  75 SE3       30.25S
PLATTEVILLE    CLOUDY    28  24  85 CALM      30.24S
$$

WIZ056-057-062-063-064-067-068-200600-
SOUTH CENTRAL WISCONSIN

CITY           SKY/WX    TMP DP  RH WIND       PRES   REMARKS
REEDSBURG      CLOUDY    22  20  91 CALM      30.25S
BARABOO/DELLS  CLOUDY    22  20  93 CALM      30.25R
LONE ROCK      CLOUDY    30  22  72 E6        30.26S WCI  24
MINERAL POINT  CLOUDY    28  25  86 SE3       30.23S
MADISON        CLOUDY    26  21  81 CALM      30.25S
MIDDLETON      CLOUDY    26  22  84 CALM      30.25S
WATERTOWN      MOCLDY    20  19  97 CALM      30.25S
MONROE         CLOUDY    27  25  93 SE5       30.24R WCI  21
JANESVILLE     CLOUDY    28  23  80 CALM      30.26R
$$

WIZ051-052-058>065-066-070>072-200600-
SOUTHEAST WISCONSIN

CITY           SKY/WX    TMP DP  RH WIND       PRES   REMARKS
MILWAUKEE      CLOUDY    28  19  69 CALM      30.26S
WAUKESHA       CLOUDY    23  19  86 CALM      30.26S
MILWAUKEE/TIMM CLOUDY    27  19  74 CALM      30.27S
RACINE         CLOUDY    28  20  71 CALM      30.28S
BURLINGTON     CLOUDY    25  19  80 CALM      30.26S
KENOSHA        CLOUDY    28  20  71 CALM      30.26S
FOND DU LAC    PTCLDY    20  17  88 SW3       30.26R
SHEBOYGAN      CLOUDY    28  21  75 N3        30.25S
WEST BEND      CLOUDY    23  19  86 CALM      30.25S
JUNEAU         CLOUDY    22  19  86 CALM      30.26S
$$

LSZ147-162-200600-
LAKE SUPERIOR

STATION/POSITION TIME  TEMP    WIND        PRES    WAVE
                       AIR SEA DIR/SP/G            HT/PER
                 (UTC) (F)     (DEG/KT/KT) (MB)    (FT/S)
DEVILS ISLAND    0500   27     170/  5/  8 1023.8F
PORT WING        0440   27     180/  2/  4 1022.7F
SAXON HARBOR     0400   26        CALM     1023.0S
$$

LMZ867-665-643>646-200600-
LAKE MICHIGAN

STATION/POSITION TIME  TEMP    WIND        PRES    WAVE
                       AIR SEA DIR/SP/G            HT/PER
                 (UTC) (F)     (DEG/KT/KT) (MB)    (FT/S)
CHAMBERS ISLAND  0400   18        CALM     1024.7F
NORTHPORT PIER   0424   25        CALM     1025.1F
SISTER BAY       0343             CALM       N/A
ALGOMA LAKESHORE 0344          330/  5/  5   N/A
KEWAUNEE LAKESHO 0400   26      CALM  /  1 1023.7F
SHEBOYGAN LAKESH 0500   29 34  300/  6/  6 1025.7R
PORT WASHINGTON  0400   29     310/  3/  4 1025.4S
MILWAUKEE LAKESH 0400   29     190/  5/  7   N/A
KENOSHA   LAKESH 0500   28     290/  3/  3 1024.7F
$$

TC  - TEMPERATURE IN CELSIUS
VSB - VISIBILITY IN STATUTE MILES
WCI - WIND CHILL INDEX
HX  - HEAT INDEX




USA.gov is the U.S. government's official web portal to all federal, state and local government web resources and services.